Tracking 19559 objects as of 26-Mar-2019
HD Live streaming from Space Station
objects crossing your sky now

ESSA 5

Track ESSA 5 now!
10-day predictions
ESSA 5 is classified as:


NORAD ID: 2757
Int'l Code: 1967-036A
Perigee: 1,361.6 km
Apogee: 1,428.7 km
Inclination: 101.8 °
Period: 113.5 minutes
Semi major axis: 7766 km
RCS: 0.8456 m2 (medium)
Launch date: April 20, 1967
Source: United States (US)
Launch site: AIR FORCE WESTERN TEST RANGE (AFWTR)
aabbcc
Your satellite tracking list
Your tracking list is empty




NASA's NSSDC Master Catalog

Two Line Element Set (TLE):
1  2757U 67036A   19085.18218177 -.00000052  00000-0 -26091-4 0  9992
2  2757 101.8212 159.4363 0043201  62.3765 313.7548 12.68499420404675
Source of the keplerian elements: AFSPC